Hourly Data Report for November 11, 2020

VICTORIA UNIVERSITY CS
BRITISH COLUMBIA
Current Station Operator: ECCC - MSC

48°27'25.200" N
123°18'16.600" W
60.10 m
1018598
71783
WYJ

Download Data

Hourly Data (November 2020)
Hourly Data Report for November 11, 2020
TIME
LST
Temp Definition
°C
Dew Point Definition
°C
Rel Hum Definition
%
Precip. Amount Definition
mm

Wind Dir Definition
10's deg

Wind Spd Definition
km/h
Visibility Definition
km
Stn Press Definition
kPa
Hmdx Definition


Wind Chill Definition


Weather Definition


00:00 3.4 2.6 95 0.0 29 4   101.18     LegendNANA
01:00 3.9 3.1 95 0.3 28 4   101.18     LegendNANA
02:00 4.0 2.8 92 0.0 29 3   101.21     LegendNANA
03:00 2.9 2.0 94 0.0 29 4   101.26     LegendNANA
04:00 3.4 2.2 91 0.0 33 3   101.26     LegendNANA
05:00 2.3 1.9 98 0.0 30 4   101.31     LegendNANA
06:00 3.1 2.6 96 0.0 27 3   101.35     LegendNANA
07:00 2.8 2.7 99 0.0 27 1   101.36     LegendNANA
08:00 3.5 3.3 99 0.0 34 4   101.39     LegendNANA
09:00 4.9 3.7 92 0.0 33 3   101.46     LegendNANA
10:00 5.1 4.4 95 0.0 2 2   101.47     LegendNANA
11:00 5.0 4.8 98 0.9 35 2   101.52     LegendNANA
12:00 4.4 3.5 94 2.2   0   101.49     LegendNANA
13:00 5.2 4.7 97 0.4 31 4   101.48     LegendNANA
14:00 5.5 4.6 93 0.0 35 3   101.52     LegendNANA
15:00 5.4 4.6 94 0.0 36 2   101.52     LegendNANA
16:00 5.2 4.8 98 0.0   0   101.50     LegendNANA
17:00 4.1 3.8 98 0.0 0 1   101.52     LegendNANA
18:00 4.2 3.9 98 0.0 28 2   101.48     LegendNANA
19:00 5.3 4.3 94 0.0 12 1   101.43     LegendNANA
20:00 5.5 4.6 94 0.0 19 1   101.42     LegendNANA
21:00 5.6 4.7 94 0.0 0 1   101.42     LegendNANA
22:00 6.0 5.1 94 0.0 12 1   101.40     LegendNANA
23:00 5.8 4.7 93 0.0 9 5   101.33     LegendNANA

Notes on Data Quality.

Legend

  • E = Estimated
  • M = Missing
  • NA = Not Available*
  • [empty] = Indicates an unobserved value
Date modified: